| time (UTC) | temp F | wind direction | speed knots | gust knots | rain 1hr in | rain 24hr in | rain mn in | humidity % | barometer mb |
| 20260507041100 | 59 | 223 | 2.6 | 6.1 | 0.00 | 0.00 | 0.00 | 76 | 1018.1 |
| 20260507040600 | 60 | 249 | 1.7 | 6.1 | 0.00 | 0.00 | 0.00 | 75 | 1018.0 |
| 20260507040103 | 60 | 217 | 1.7 | 6.1 | 0.00 | 0.00 | 0.00 | 75 | 1018.0 |
| 20260507035601 | 60 | 246 | 2.6 | 6.1 | 0.00 | 0.00 | 0.00 | 75 | 1017.9 |
| 20260507035058 | 60 | 275 | 3.5 | 6.1 | 0.00 | 0.00 | 0.00 | 75 | 1017.8 |
| 20260507034604 | 60 | 243 | 2.6 | 5.2 | 0.00 | 0.00 | 0.00 | 75 | 1017.7 |
| 20260507034058 | 60 | 262 | 1.7 | 7.0 | 0.00 | 0.00 | 0.00 | 74 | 1017.6 |
| 20260507033559 | 61 | 231 | 2.6 | 7.0 | 0.00 | 0.00 | 0.00 | 74 | 1017.7 |
| 20260507033102 | 61 | 266 | 2.6 | 7.0 | 0.00 | 0.00 | 0.00 | 74 | 1017.6 |
| 20260507032559 | 61 | 243 | 2.6 | 7.0 | 0.00 | 0.00 | 0.00 | 74 | 1017.5 |
| 20260507032057 | 61 | 250 | 1.7 | 6.1 | 0.00 | 0.00 | 0.00 | 73 | 1017.5 |
| 20260507031559 | 62 | 258 | 1.7 | 7.0 | 0.00 | 0.00 | 0.00 | 73 | 1017.5 |
| 20260507031059 | 62 | 238 | 3.5 | 7.0 | 0.00 | 0.00 | 0.00 | 73 | 1017.5 |
| 20260507030558 | 62 | 241 | 2.6 | 7.0 | 0.00 | 0.00 | 0.00 | 73 | 1017.5 |
| 20260507030058 | 62 | 237 | 0.9 | 7.8 | 0.00 | 0.00 | 0.00 | 72 | 1017.5 |
| 20260507025558 | 63 | 243 | 3.5 | 7.8 | 0.00 | 0.00 | 0.00 | 72 | 1017.4 |
| 20260507025057 | 63 | 235 | 2.6 | 7.8 | 0.00 | 0.00 | 0.00 | 71 | 1017.4 |
| 20260507024559 | 63 | 242 | 2.6 | 7.0 | 0.00 | 0.00 | 0.00 | 71 | 1017.4 |
| 20260507024107 | 64 | 256 | 2.6 | 7.0 | 0.00 | 0.00 | 0.00 | 71 | 1017.3 |
| 20260507023600 | 64 | 249 | 1.7 | 7.0 | 0.00 | 0.00 | 0.00 | 70 | 1017.2 |
| 20260507023058 | 65 | 255 | 3.5 | 6.1 | 0.00 | 0.00 | 0.00 | 70 | 1017.2 |
| 20260507022558 | 65 | 228 | 3.5 | 6.1 | 0.00 | 0.00 | 0.00 | 69 | 1017.1 |
| 20260507022058 | 66 | 210 | 1.7 | 7.0 | 0.00 | 0.00 | 0.00 | 69 | 1017.1 |
| 20260507021618 | 66 | 243 | 2.6 | 7.0 | 0.00 | 0.00 | 0.00 | 68 | 1017.0 |
| 20260507021058 | 66 | 261 | 2.6 | 7.0 | 0.00 | 0.00 | 0.00 | 68 | 1017.0 |
| 20260507020557 | 66 | 270 | 2.6 | 10.4 | 0.00 | 0.00 | 0.00 | 67 | 1017.0 |
| 20260507020107 | 67 | 153 | 3.5 | 10.4 | 0.00 | 0.00 | 0.00 | 67 | 1017.0 |
| 20260507015557 | 67 | 266 | 4.3 | 7.8 | 0.00 | 0.00 | 0.00 | 67 | 1016.9 |
| 20260507015100 | 67 | 242 | 3.5 | 7.8 | 0.00 | 0.00 | 0.00 | 66 | 1016.9 |
| 20260507014602 | 68 | 239 | 2.6 | 7.8 | 0.00 | 0.00 | 0.00 | 66 | 1016.9 |
| 20260507014057 | 68 | 209 | 2.6 | 11.3 | 0.00 | 0.00 | 0.00 | 66 | 1016.8 |
| 20260507013558 | 68 | 235 | 4.3 | 11.3 | 0.00 | 0.00 | 0.00 | 66 | 1016.8 |
| 20260507013111 | 68 | 244 | 5.2 | 9.6 | 0.00 | 0.00 | 0.00 | 65 | 1016.8 |
| 20260507012603 | 68 | 193 | 3.5 | 10.4 | 0.00 | 0.00 | 0.00 | 65 | 1016.7 |
| 20260507012057 | 68 | 247 | 5.2 | 10.4 | 0.00 | 0.00 | 0.00 | 65 | 1016.7 |
| 20260507011559 | 69 | 270 | 5.2 | 10.4 | 0.00 | 0.00 | 0.00 | 63 | 1016.7 |
| 20260507011057 | 69 | 228 | 2.6 | 11.3 | 0.00 | 0.00 | 0.00 | 64 | 1016.6 |
| 20260507010557 | 69 | 269 | 4.3 | 11.3 | 0.00 | 0.00 | 0.00 | 64 | 1016.6 |
| 20260507010059 | 70 | 259 | 2.6 | 10.4 | 0.00 | 0.00 | 0.00 | 64 | 1016.6 |
| 20260507005558 | 69 | 259 | 5.2 | 10.4 | 0.00 | 0.00 | 0.00 | 63 | 1016.6 |
| 20260507005057 | 70 | 219 | 5.2 | 10.4 | 0.00 | 0.00 | 0.00 | 62 | 1016.5 |
| 20260507004558 | 70 | 273 | 5.2 | 11.3 | 0.00 | 0.00 | 0.00 | 63 | 1016.5 |
| 20260507004058 | 70 | 256 | 6.1 | 11.3 | 0.00 | 0.00 | 0.00 | 63 | 1016.4 |
| 20260507003558 | 70 | 255 | 5.2 | 10.4 | 0.00 | 0.00 | 0.00 | 62 | 1016.4 |
| 20260507003058 | 70 | 256 | 5.2 | 12.2 | 0.00 | 0.00 | 0.00 | 62 | 1016.5 |
| 20260507002558 | 71 | 248 | 2.6 | 12.2 | 0.00 | 0.00 | 0.00 | 61 | 1016.4 |
| 20260507002057 | 71 | 249 | 4.3 | 12.2 | 0.00 | 0.00 | 0.00 | 61 | 1016.3 |
| 20260507001605 | 70 | 252 | 6.1 | 12.2 | 0.00 | 0.00 | 0.00 | 61 | 1016.3 |
| 20260507001056 | 71 | 271 | 4.3 | 9.6 | 0.00 | 0.00 | 0.00 | 60 | 1016.3 |
| 20260507000557 | 71 | 228 | 5.2 | 12.2 | 0.00 | 0.00 | 0.00 | 61 | 1016.2 |
| 20260507000058 | 72 | 272 | 3.5 | 12.2 | 0.00 | 0.00 | 0.00 | 60 | 1016.2 |
| 20260506235558 | 72 | 269 | 4.3 | 10.4 | 0.00 | 0.00 | 0.00 | 59 | 1016.2 |
| 20260506235057 | 72 | 253 | 5.2 | 11.3 | 0.00 | 0.00 | 0.00 | 58 | 1016.2 |
| 20260506234627 | 72 | 285 | 5.2 | 11.3 | 0.00 | 0.00 | 0.00 | 59 | 1016.2 |
| 20260506234057 | 72 | 243 | 3.5 | 11.3 | 0.00 | 0.00 | 0.00 | 59 | 1016.1 |
| 20260506233558 | 72 | 257 | 7.0 | 10.4 | 0.00 | 0.00 | 0.00 | 58 | 1016.1 |
| 20260506233057 | 73 | 249 | 4.3 | 10.4 | 0.00 | 0.00 | 0.00 | 56 | 1016.2 |
| 20260506232559 | 72 | 265 | 4.3 | 12.2 | 0.00 | 0.00 | 0.00 | 57 | 1016.2 |
| 20260506232056 | 72 | 255 | 5.2 | 12.2 | 0.00 | 0.00 | 0.00 | 57 | 1016.2 |
| 20260506231558 | 72 | 255 | 5.2 | 10.4 | 0.00 | 0.00 | 0.00 | 57 | 1016.2 |
| 20260506231059 | 72 | 226 | 3.5 | 10.4 | 0.00 | 0.00 | 0.00 | 56 | 1016.2 |
| 20260506230602 | 72 | 278 | 4.3 | 11.3 | 0.00 | 0.00 | 0.00 | 56 | 1016.2 |
| 20260506230059 | 72 | 251 | 6.1 | 11.3 | 0.00 | 0.00 | 0.00 | 56 | 1016.2 |
| 20260506225602 | 72 | 246 | 2.6 | 10.4 | 0.00 | 0.00 | 0.00 | 56 | 1016.3 |
| 20260506225059 | 72 | 271 | 2.6 | 10.4 | 0.00 | 0.00 | 0.00 | 57 | 1016.3 |
| 20260506224600 | 72 | 254 | 2.6 | 10.4 | 0.00 | 0.00 | 0.00 | 56 | 1016.3 |
| 20260506224101 | 72 | 217 | 5.2 | 10.4 | 0.00 | 0.00 | 0.00 | 56 | 1016.4 |
| 20260506223600 | 72 | 253 | 3.5 | 10.4 | 0.00 | 0.00 | 0.00 | 56 | 1016.5 |
| 20260506223101 | 72 | 236 | 5.2 | 11.3 | 0.00 | 0.00 | 0.00 | 56 | 1016.6 |
| 20260506222635 | 72 | 226 | 3.5 | 12.2 | 0.00 | 0.00 | 0.00 | 56 | 1016.6 |
| 20260506222057 | 72 | 237 | 3.5 | 12.2 | 0.00 | 0.00 | 0.00 | 55 | 1016.6 |
| 20260506221558 | 72 | 248 | 2.6 | 9.6 | 0.00 | 0.00 | 0.00 | 55 | 1016.7 |
| 20260506221056 | 72 | 228 | 3.5 | 9.6 | 0.00 | 0.00 | 0.00 | 53 | 1016.8 |
| 20260506220556 | 72 | 265 | 4.3 | 12.2 | 0.00 | 0.00 | 0.00 | 55 | 1016.8 |
| 20260506220055 | 71 | 241 | 4.3 | 12.2 | 0.00 | 0.00 | 0.00 | 53 | 1017.0 |
| 20260506215557 | 72 | 259 | 6.1 | 12.2 | 0.00 | 0.00 | 0.00 | 53 | 1017.0 |
| 20260506215101 | 72 | 250 | 2.6 | 9.6 | 0.00 | 0.00 | 0.00 | 53 | 1017.0 |
| 20260506214557 | 71 | 259 | 2.6 | 9.6 | 0.00 | 0.00 | 0.00 | 54 | 1017.2 |
| 20260506214057 | 71 | 307 | 2.6 | 9.6 | 0.00 | 0.00 | 0.00 | 53 | 1017.4 |
| 20260506213557 | 71 | 153 | 3.5 | 9.6 | 0.00 | 0.00 | 0.00 | 53 | 1017.4 |
| 20260506213058 | 72 | 155 | 1.7 | 9.6 | 0.00 | 0.00 | 0.00 | 53 | 1017.4 |
| 20260506212557 | 72 | 259 | 1.7 | 10.4 | 0.00 | 0.00 | 0.00 | 53 | 1017.5 |
| 20260506212059 | 71 | 281 | 2.6 | 10.4 | 0.00 | 0.00 | 0.00 | 53 | 1017.5 |
| 20260506211559 | 71 | 214 | 2.6 | 7.8 | 0.00 | 0.00 | 0.00 | 54 | 1017.6 |
| 20260506211057 | 71 | 257 | 2.6 | 7.8 | 0.00 | 0.00 | 0.00 | 54 | 1017.6 |
| 20260506210559 | 70 | 169 | 2.6 | 9.6 | 0.00 | 0.00 | 0.00 | 54 | 1017.7 |
| 20260506210057 | 71 | 62 | 1.7 | 9.6 | 0.00 | 0.00 | 0.00 | 54 | 1017.7 |
| 20260506205559 | 71 | 137 | 2.6 | 7.8 | 0.00 | 0.00 | 0.00 | 54 | 1017.8 |
| 20260506205056 | 71 | 188 | 0.9 | 8.7 | 0.00 | 0.00 | 0.00 | 55 | 1017.8 |
| 20260506204602 | 70 | 233 | 1.7 | 8.7 | 0.00 | 0.00 | 0.00 | 56 | 1017.9 |
| 20260506204056 | 69 | 278 | 3.5 | 8.7 | 0.00 | 0.00 | 0.00 | 57 | 1017.9 |
| 20260506203556 | 69 | 272 | 0.9 | 8.7 | 0.00 | 0.00 | 0.00 | 58 | 1018.0 |
| 20260506203058 | 69 | 276 | 3.5 | 8.7 | 0.00 | 0.00 | 0.00 | 57 | 1018.1 |
| 20260506202600 | 70 | 257 | 2.6 | 8.7 | 0.00 | 0.00 | 0.00 | 56 | 1018.1 |
| 20260506202059 | 69 | 231 | 0.9 | 8.7 | 0.00 | 0.00 | 0.00 | 57 | 1018.1 |
| 20260506201558 | 69 | 237 | 1.7 | 7.8 | 0.00 | 0.00 | 0.00 | 57 | 1018.1 |
| 20260506201057 | 68 | 127 | 3.5 | 7.8 | 0.00 | 0.00 | 0.00 | 59 | 1018.1 |
| 20260506200601 | 69 | 249 | 1.7 | 7.8 | 0.00 | 0.00 | 0.00 | 57 | 1018.2 |
| 20260506200112 | 69 | 202 | 1.7 | 7.0 | 0.00 | 0.00 | 0.00 | 57 | 1018.2 |
| 20260506195600 | 69 | 150 | 2.6 | 5.2 | 0.00 | 0.00 | 0.00 | 58 | 1018.2 |
| 20260506195057 | 69 | 0 | 1.7 | 6.1 | 0.00 | 0.00 | 0.00 | 56 | 1018.3 |
| 20260506194619 | 68 | 182 | 2.6 | 7.8 | 0.00 | 0.00 | 0.00 | 60 | 1018.3 |
| 20260506194056 | 68 | 261 | 3.5 | 7.8 | 0.00 | 0.00 | 0.00 | 58 | 1018.3 |
| 20260506193600 | 69 | 255 | 0.0 | 7.0 | 0.00 | 0.00 | 0.00 | 57 | 1018.4 |
| 20260506193058 | 67 | 193 | 3.5 | 7.0 | 0.00 | 0.00 | 0.00 | 57 | 1018.5 |
| 20260506192557 | 68 | 179 | 0.9 | 5.2 | 0.00 | 0.00 | 0.00 | 57 | 1018.6 |
| 20260506192057 | 67 | 0 | 1.7 | 5.2 | 0.00 | 0.00 | 0.00 | 57 | 1018.6 |
| 20260506191556 | 67 | 212 | 1.7 | 6.1 | 0.00 | 0.00 | 0.00 | 59 | 1018.7 |
| 20260506191057 | 67 | 152 | 0.9 | 6.1 | 0.00 | 0.00 | 0.00 | 58 | 1018.8 |
| 20260506190559 | 67 | 267 | 2.6 | 6.1 | 0.00 | 0.00 | 0.00 | 59 | 1018.9 |
| 20260506190100 | 67 | 123 | 1.7 | 5.2 | 0.00 | 0.00 | 0.00 | 59 | 1018.9 |
| 20260506185557 | 67 | 107 | 0.9 | 4.3 | 0.00 | 0.00 | 0.00 | 57 | 1019.0 |
| 20260506185100 | 67 | 323 | 0.0 | 4.3 | 0.00 | 0.00 | 0.00 | 58 | 1019.0 |
| 20260506184610 | 66 | 288 | 1.7 | 4.3 | 0.00 | 0.00 | 0.00 | 59 | 1019.1 |
| 20260506184057 | 65 | 161 | 0.9 | 6.1 | 0.00 | 0.00 | 0.00 | 60 | 1019.0 |
| 20260506183601 | 65 | 100 | 2.6 | 6.1 | 0.00 | 0.00 | 0.00 | 59 | 1019.2 |
| 20260506183105 | 66 | 241 | 0.9 | 3.5 | 0.00 | 0.00 | 0.00 | 60 | 1019.1 |
| 20260506182556 | 65 | 0 | 0.9 | 4.3 | 0.00 | 0.00 | 0.00 | 60 | 1019.2 |
| 20260506182056 | 65 | 251 | 0.0 | 7.0 | 0.00 | 0.00 | 0.00 | 61 | 1019.3 |
| 20260506181600 | 64 | 132 | 1.7 | 7.0 | 0.00 | 0.00 | 0.00 | 61 | 1019.2 |
| 20260506181100 | 64 | 182 | 0.9 | 7.0 | 0.00 | 0.00 | 0.00 | 62 | 1019.2 |
| 20260506180557 | 64 | 274 | 1.7 | 5.2 | 0.00 | 0.00 | 0.00 | 62 | 1019.2 |
| 20260506180057 | 64 | 91 | 0.9 | 3.5 | 0.00 | 0.00 | 0.00 | 63 | 1019.3 |
| 20260506175556 | 63 | 249 | 0.0 | 3.5 | 0.00 | 0.00 | 0.00 | 64 | 1019.3 |
| 20260506175056 | 62 | 0 | 0.9 | 4.3 | 0.00 | 0.00 | 0.00 | 64 | 1019.3 |
| 20260506174602 | 62 | 116 | 1.7 | 4.3 | 0.00 | 0.00 | 0.00 | 64 | 1019.2 |
| 20260506174058 | 62 | 166 | 1.7 | 4.3 | 0.00 | 0.00 | 0.00 | 65 | 1019.2 |
| 20260506173558 | 62 | 124 | 0.0 | 3.5 | 0.00 | 0.00 | 0.00 | 65 | 1019.3 |
| 20260506173112 | 62 | 120 | 0.0 | 3.5 | 0.00 | 0.00 | 0.00 | 65 | 1019.3 |
| 20260506172600 | 61 | 44 | 1.7 | 5.2 | 0.00 | 0.00 | 0.00 | 66 | 1019.2 |
| 20260506172056 | 62 | 76 | 0.9 | 5.2 | 0.00 | 0.00 | 0.00 | 66 | 1019.3 |
| 20260506171600 | 62 | 117 | 0.0 | 2.6 | 0.00 | 0.00 | 0.00 | 67 | 1019.3 |
| 20260506171057 | 61 | 201 | 0.9 | 3.5 | 0.00 | 0.00 | 0.00 | 67 | 1019.2 |
| 20260506170600 | 61 | 0 | 0.9 | 3.5 | 0.00 | 0.00 | 0.00 | 68 | 1019.2 |
| 20260506170057 | 61 | 190 | 0.9 | 3.5 | 0.00 | 0.00 | 0.00 | 68 | 1019.2 |
| 20260506165557 | 61 | 0 | 0.9 | 3.5 | 0.00 | 0.00 | 0.00 | 68 | 1019.2 |
| 20260506165057 | 61 | 270 | 0.9 | 3.5 | 0.00 | 0.00 | 0.00 | 68 | 1019.2 |
| 20260506164558 | 60 | 237 | 0.0 | 5.2 | 0.00 | 0.00 | 0.00 | 69 | 1019.2 |
| 20260506164056 | 59 | 182 | 0.9 | 5.2 | 0.00 | 0.00 | 0.00 | 70 | 1019.2 |
| 20260506163556 | 59 | 213 | 0.9 | 3.5 | 0.00 | 0.00 | 0.00 | 70 | 1019.2 |
| 20260506163055 | 59 | 202 | 0.9 | 3.5 | 0.00 | 0.00 | 0.00 | 72 | 1019.2 |
| 20260506162559 | 59 | 203 | 0.9 | 4.3 | 0.00 | 0.00 | 0.00 | 71 | 1019.2 |
| 20260506162101 | 58 | 0 | 0.9 | 4.3 | 0.00 | 0.00 | 0.00 | 73 | 1019.2 |
| 20260506161605 | 59 | 250 | 0.0 | 3.5 | 0.00 | 0.00 | 0.00 | 71 | 1019.2 |
| 20260506161057 | 59 | 181 | 0.9 | 3.5 | 0.00 | 0.00 | 0.00 | 71 | 1019.1 |
| 20260506160557 | 58 | 106 | 0.9 | 3.5 | 0.00 | 0.00 | 0.00 | 72 | 1019.2 |
| 20260506160058 | 58 | 207 | 0.9 | 3.5 | 0.00 | 0.00 | 0.00 | 73 | 1019.2 |
| 20260506155558 | 58 | 64 | 0.9 | 2.6 | 0.00 | 0.00 | 0.00 | 73 | 1019.1 |
| 20260506155058 | 58 | 115 | 0.0 | 1.7 | 0.00 | 0.00 | 0.00 | 72 | 1019.1 |
| 20260506154557 | 58 | 0 | 0.0 | 1.7 | 0.00 | 0.00 | 0.00 | 72 | 1019.0 |
| 20260506154057 | 58 | 180 | 0.0 | 0.9 | 0.00 | 0.00 | 0.00 | 74 | 1019.0 |
| 20260506153556 | 57 | 0 | 0.0 | 1.7 | 0.00 | 0.00 | 0.00 | 74 | 1019.1 |
| 20260506153058 | 57 | 143 | 0.0 | 1.7 | 0.00 | 0.00 | 0.00 | 73 | 1019.1 |
| 20260506152557 | 57 | 61 | 0.0 | 1.7 | 0.00 | 0.00 | 0.00 | 74 | 1019.2 |
| 20260506152101 | 57 | 0 | 0.0 | 1.7 | 0.00 | 0.00 | 0.00 | 75 | 1019.2 |
| 20260506151608 | 57 | 195 | 0.0 | 1.7 | 0.00 | 0.00 | 0.00 | 76 | 1019.2 |
| 20260506151057 | 57 | 261 | 0.0 | 0.9 | 0.00 | 0.00 | 0.00 | 76 | 1019.3 |
| 20260506150557 | 56 | 0 | 0.0 | 1.7 | 0.00 | 0.00 | 0.00 | 75 | 1019.3 |
| 20260506150106 | 56 | 0 | 0.0 | 1.7 | 0.00 | 0.00 | 0.00 | 76 | 1019.2 |
| 20260506145558 | 56 | 143 | 0.0 | 1.7 | 0.00 | 0.00 | 0.00 | 75 | 1019.2 |
| 20260506145058 | 57 | 0 | 0.0 | 1.7 | 0.00 | 0.00 | 0.00 | 75 | 1019.2 |
| 20260506144613 | 58 | 69 | 0.0 | 1.7 | 0.00 | 0.00 | 0.00 | 75 | 1019.2 |
| 20260506144056 | 57 | 0 | 0.0 | 0.0 | 0.00 | 0.00 | 0.00 | 78 | 1019.2 |
| 20260506143557 | 56 | 0 | 0.0 | 0.9 | 0.00 | 0.00 | 0.00 | 79 | 1019.1 |
| 20260506143103 | 56 | 0 | 0.0 | 0.9 | 0.00 | 0.00 | 0.00 | 82 | 1019.0 |
| 20260506142558 | 55 | 0 | 0.0 | 0.9 | 0.00 | 0.00 | 0.00 | 83 | 1018.9 |
| 20260506142056 | 54 | 0 | 0.0 | 0.9 | 0.00 | 0.00 | 0.00 | 85 | 1018.8 |
| 20260506141559 | 54 | 0 | 0.0 | 0.0 | 0.00 | 0.00 | 0.00 | 87 | 1018.9 |
| 20260506141057 | 53 | 0 | 0.0 | 0.0 | 0.00 | 0.00 | 0.00 | 90 | 1018.9 |
| 20260506140558 | 52 | 0 | 0.0 | 0.0 | 0.00 | 0.00 | 0.00 | 91 | 1018.9 |
| 20260506140111 | 51 | 0 | 0.0 | 0.0 | 0.00 | 0.00 | 0.00 | 91 | 1018.9 |
| 20260506135557 | 50 | 0 | 0.0 | 0.0 | 0.00 | 0.00 | 0.00 | 93 | 1018.8 |
| 20260506135056 | 49 | 0 | 0.0 | 0.0 | 0.00 | 0.00 | 0.00 | 92 | 1018.8 |
| 20260506134559 | 49 | 0 | 0.0 | 0.0 | 0.00 | 0.00 | 0.00 | 94 | 1018.7 |
| 20260506134056 | 48 | 0 | 0.0 | 0.0 | 0.00 | 0.00 | 0.00 | 93 | 1018.7 |
| 20260506133557 | 47 | 0 | 0.0 | 0.0 | 0.00 | 0.00 | 0.00 | 93 | 1018.6 |
| 20260506133059 | 47 | 0 | 0.0 | 0.9 | 0.00 | 0.00 | 0.00 | 94 | 1018.5 |
| 20260506132557 | 46 | 0 | 0.0 | 0.9 | 0.00 | 0.00 | 0.00 | 94 | 1018.5 |
| 20260506132056 | 46 | 0 | 0.0 | 0.0 | 0.00 | 0.00 | 0.00 | 94 | 1018.4 |
| 20260506131601 | 46 | 0 | 0.0 | 0.0 | 0.00 | 0.00 | 0.00 | 94 | 1018.3 |
| 20260506131056 | 46 | 0 | 0.0 | 0.0 | 0.00 | 0.00 | 0.00 | 94 | 1018.3 |
| 20260506130557 | 46 | 0 | 0.0 | 0.0 | 0.00 | 0.00 | 0.00 | 94 | 1018.3 |
| 20260506130126 | 46 | 0 | 0.0 | 0.0 | 0.00 | 0.00 | 0.00 | 94 | 1018.2 |
| 20260506125602 | 46 | 0 | 0.0 | 0.0 | 0.00 | 0.00 | 0.00 | 94 | 1018.2 |
| 20260506125057 | 46 | 0 | 0.0 | 0.0 | 0.00 | 0.00 | 0.00 | 94 | 1018.2 |
| 20260506124556 | 46 | 0 | 0.0 | 0.0 | 0.00 | 0.00 | 0.00 | 94 | 1018.2 |
| 20260506124058 | 46 | 0 | 0.0 | 0.0 | 0.00 | 0.00 | 0.00 | 94 | 1018.2 |
| 20260506123559 | 46 | 0 | 0.0 | 0.0 | 0.00 | 0.00 | 0.00 | 94 | 1018.1 |
| 20260506123055 | 46 | 0 | 0.0 | 0.0 | 0.00 | 0.00 | 0.00 | 93 | 1018.1 |
| 20260506122558 | 46 | 0 | 0.0 | 0.0 | 0.00 | 0.00 | 0.00 | 93 | 1018.0 |
| 20260506122056 | 46 | 0 | 0.0 | 0.0 | 0.00 | 0.00 | 0.00 | 93 | 1018.0 |
| 20260506121555 | 46 | 0 | 0.0 | 0.0 | 0.00 | 0.00 | 0.00 | 93 | 1018.1 |
| 20260506121056 | 46 | 0 | 0.0 | 0.0 | 0.00 | 0.00 | 0.00 | 93 | 1018.0 |
| 20260506120556 | 46 | 0 | 0.0 | 0.0 | 0.00 | 0.00 | 0.00 | 93 | 1017.9 |
| 20260506120100 | 46 | 0 | 0.0 | 0.0 | 0.00 | 0.00 | 0.00 | 93 | 1017.9 |
| 20260506115557 | 46 | 0 | 0.0 | 0.0 | 0.00 | 0.00 | 0.00 | 93 | 1017.9 |
| 20260506115055 | 46 | 0 | 0.0 | 0.0 | 0.00 | 0.00 | 0.00 | 92 | 1017.9 |
| 20260506114557 | 46 | 0 | 0.0 | 0.0 | 0.00 | 0.00 | 0.00 | 93 | 1017.9 |
| 20260506114057 | 46 | 0 | 0.0 | 0.0 | 0.00 | 0.00 | 0.00 | 92 | 1017.9 |
| 20260506113558 | 46 | 0 | 0.0 | 0.0 | 0.00 | 0.00 | 0.00 | 92 | 1017.9 |
| 20260506113105 | 46 | 0 | 0.0 | 0.0 | 0.00 | 0.00 | 0.00 | 92 | 1017.9 |
| 20260506112555 | 46 | 0 | 0.0 | 0.0 | 0.00 | 0.00 | 0.00 | 92 | 1017.8 |
| 20260506112056 | 46 | 0 | 0.0 | 0.0 | 0.00 | 0.00 | 0.00 | 92 | 1017.8 |
| 20260506111600 | 46 | 0 | 0.0 | 0.0 | 0.00 | 0.00 | 0.00 | 92 | 1017.8 |
| 20260506111056 | 46 | 0 | 0.0 | 0.0 | 0.00 | 0.00 | 0.00 | 92 | 1017.8 |
| 20260506110557 | 46 | 0 | 0.0 | 0.0 | 0.00 | 0.00 | 0.00 | 92 | 1017.9 |
| 20260506110105 | 46 | 0 | 0.0 | 0.0 | 0.00 | 0.00 | 0.00 | 91 | 1017.8 |
| 20260506105558 | 46 | 0 | 0.0 | 0.0 | 0.00 | 0.03 | 0.00 | 90 | 1017.8 |
| 20260506105056 | 46 | 0 | 0.0 | 0.0 | 0.00 | 0.03 | 0.00 | 91 | 1017.7 |
| 20260506104617 | 46 | 0 | 0.0 | 0.0 | 0.00 | 0.03 | 0.00 | 91 | 1017.8 |
| 20260506104058 | 46 | 0 | 0.0 | 0.0 | 0.00 | 0.03 | 0.00 | 91 | 1017.8 |
| 20260506103557 | 46 | 0 | 0.0 | 0.0 | 0.00 | 0.03 | 0.00 | 91 | 1017.8 |
| 20260506103055 | 45 | 0 | 0.0 | 0.0 | 0.00 | 0.03 | 0.00 | 90 | 1017.8 |
| 20260506102558 | 45 | 0 | 0.0 | 0.0 | 0.00 | 0.03 | 0.00 | 90 | 1017.9 |
| 20260506102057 | 45 | 0 | 0.0 | 0.0 | 0.00 | 0.03 | 0.00 | 90 | 1017.9 |
| 20260506101606 | 46 | 0 | 0.0 | 0.0 | 0.00 | 0.03 | 0.00 | 90 | 1017.8 |
| 20260506101057 | 46 | 0 | 0.0 | 0.0 | 0.00 | 0.03 | 0.00 | 90 | 1017.8 |
| 20260506100559 | 46 | 0 | 0.0 | 0.0 | 0.00 | 0.03 | 0.00 | 89 | 1017.8 |
| 20260506100104 | 46 | 0 | 0.0 | 0.0 | 0.00 | 0.03 | 0.00 | 90 | 1017.9 |
| 20260506095559 | 46 | 0 | 0.0 | 0.0 | 0.00 | 0.11 | 0.00 | 89 | 1017.9 |
| 20260506095058 | 46 | 0 | 0.0 | 0.0 | 0.00 | 0.11 | 0.00 | 88 | 1017.9 |
| 20260506094600 | 46 | 0 | 0.0 | 0.0 | 0.00 | 0.11 | 0.00 | 88 | 1017.9 |
| 20260506094057 | 46 | 0 | 0.0 | 0.0 | 0.00 | 0.11 | 0.00 | 88 | 1017.9 |
| 20260506093557 | 47 | 0 | 0.0 | 0.0 | 0.00 | 0.11 | 0.00 | 88 | 1017.9 |
| 20260506093104 | 47 | 0 | 0.0 | 0.0 | 0.00 | 0.11 | 0.00 | 88 | 1017.9 |
| 20260506092558 | 47 | 0 | 0.0 | 0.0 | 0.00 | 0.11 | 0.00 | 88 | 1017.9 |
| 20260506092058 | 47 | 0 | 0.0 | 0.0 | 0.00 | 0.11 | 0.00 | 88 | 1017.9 |
| 20260506091559 | 47 | 0 | 0.0 | 0.0 | 0.00 | 0.11 | 0.00 | 88 | 1018.1 |
| 20260506091101 | 47 | 0 | 0.0 | 0.0 | 0.00 | 0.11 | 0.00 | 88 | 1018.1 |
| 20260506090604 | 47 | 0 | 0.0 | 0.9 | 0.00 | 0.11 | 0.00 | 87 | 1018.2 |
| 20260506085557 | 48 | 234 | 0.0 | 0.9 | 0.00 | 0.15 | 0.00 | 87 | 1018.3 |
| 20260506085059 | 48 | 0 | 0.0 | 0.9 | 0.00 | 0.15 | 0.00 | 86 | 1018.3 |
| 20260506084559 | 48 | 0 | 0.0 | 0.9 | 0.00 | 0.15 | 0.00 | 86 | 1018.3 |
| 20260506084058 | 49 | 0 | 0.0 | 0.9 | 0.00 | 0.15 | 0.00 | 85 | 1018.3 |
| 20260506083558 | 49 | 250 | 0.0 | 0.9 | 0.00 | 0.15 | 0.00 | 86 | 1018.3 |
| 20260506083100 | 49 | 0 | 0.0 | 0.0 | 0.00 | 0.15 | 0.00 | 86 | 1018.3 |
| 20260506082558 | 49 | 0 | 0.0 | 0.0 | 0.00 | 0.15 | 0.00 | 86 | 1018.4 |
| 20260506082100 | 49 | 0 | 0.0 | 0.0 | 0.00 | 0.15 | 0.00 | 86 | 1018.4 |
| 20260506081605 | 49 | 0 | 0.0 | 1.7 | 0.00 | 0.15 | 0.00 | 85 | 1018.5 |
| 20260506081058 | 49 | 0 | 0.0 | 1.7 | 0.00 | 0.15 | 0.00 | 85 | 1018.5 |
| 20260506080558 | 49 | 255 | 0.0 | 0.0 | 0.00 | 0.15 | 0.00 | 86 | 1018.5 |
| 20260506080107 | 49 | 0 | 0.0 | 0.0 | 0.00 | 0.15 | 0.00 | 86 | 1018.5 |
| 20260506073106 | 49 | 0 | 0.0 | 0.0 | 0.00 | 0.16 | 0.00 | 86 | 1018.3 |
| 20260506072556 | 49 | 0 | 0.0 | 0.0 | 0.00 | 0.16 | 0.00 | 86 | 1018.3 |
| 20260506072059 | 49 | 0 | 0.0 | 0.0 | 0.00 | 0.16 | 0.00 | 85 | 1018.3 |
| 20260506071614 | 50 | 0 | 0.0 | 0.0 | 0.00 | 0.16 | 0.00 | 85 | 1018.3 |
| 20260506071101 | 50 | 0 | 0.0 | 0.0 | 0.00 | 0.16 | 0.00 | 84 | 1018.3 |
| 20260506070558 | 50 | 0 | 0.0 | 0.0 | 0.00 | 0.16 | 0.00 | 83 | 1018.3 |
| 20260506070104 | 51 | 0 | 0.0 | 0.0 | 0.00 | 0.16 | 0.00 | 83 | 1018.2 |
| 20260506062057 | 52 | 0 | 0.0 | 0.9 | 0.00 | 0.19 | 0.16 | 80 | 1017.9 |
| 20260506061558 | 52 | 0 | 0.0 | 0.9 | 0.00 | 0.19 | 0.16 | 80 | 1017.9 |
| 20260506061055 | 53 | 0 | 0.0 | 1.7 | 0.00 | 0.19 | 0.16 | 79 | 1017.8 |
| 20260506060601 | 53 | 0 | 0.0 | 3.5 | 0.00 | 0.19 | 0.16 | 79 | 1017.9 |
| 20260506051101 | 54 | 265 | 0.0 | 1.7 | 0.00 | 0.19 | 0.16 | 76 | 1017.5 |
| 20260506050557 | 54 | 237 | 0.9 | 1.7 | 0.00 | 0.19 | 0.16 | 76 | 1017.5 |
| 20260506045057 | 54 | 0 | 0.0 | 0.9 | 0.00 | 0.19 | 0.16 | 77 | 1017.3 |
| 20260506044601 | 54 | 0 | 0.0 | 0.9 | 0.00 | 0.19 | 0.16 | 77 | 1017.3 |
| 20260506044057 | 54 | 245 | 0.0 | 0.9 | 0.00 | 0.19 | 0.16 | 76 | 1017.3 |
| 20260506043557 | 54 | 0 | 0.0 | 0.9 | 0.00 | 0.19 | 0.16 | 76 | 1017.1 |
| 20260506043057 | 54 | 0 | 0.0 | 0.9 | 0.00 | 0.19 | 0.16 | 75 | 1017.2 |
| 20260506042555 | 54 | 0 | 0.0 | 0.9 | 0.00 | 0.19 | 0.16 | 75 | 1017.1 |
| 20260506042058 | 54 | 263 | 0.0 | 0.9 | 0.00 | 0.19 | 0.16 | 75 | 1017.0 |
| 20260506041605 | 54 | 0 | 0.0 | 0.9 | 0.00 | 0.19 | 0.16 | 75 | 1016.8 |